Weather observations for the past three days for
Pueblo Memorial Airport
Imperial (Metric)
Date Time (mdt) Wind (mph) Vis. (mi.) Weather Sky Cond. Temperature (ºF) Relative Humidity Wind Chill (°F) Heat Index (°F) Pressure Precipitation (in)
Air Dwpt 6 hour altimeter (in) sea level (mb) 1 hr 3 hr 6 hr
Max. Min.
22 07:53 E 7 10.00 Fair CLR 69.1 50 51% 30.14 1014.3
22 06:53 NE 5 10.00 Fair CLR 66 50 56% 30.12 1013.2
22 05:53 E 6 10.00 Fair CLR 63 50 75 63 63% 30.1 1012.5
22 04:53 Calm 10.00 Fair CLR 68 50 53% 30.08 1011.1
22 03:53 SE 5 10.00 Fair CLR 66.9 52 59% 30.07 1011.0
22 02:53 E 3 10.00 Fair CLR 69.1 52 55% 30.06 1010.3
22 01:53 NW 16 10.00 Fair CLR 73 48 41% 30.06 1010.2
22 00:53 W 17 10.00 Fair CLR 73.9 46.9 38% 30.08 1010.9
21 23:53 SW 12 10.00 Fair CLR 72 54 87.1 72 53% 30.1 1011.9
21 22:53 SW 10 10.00 Partly Cloudy SCT090 SCT110 75 55 50% 78 30.1 1012.1
21 21:53 SW 16 G 24 10.00 Fair CLR 73.9 55 52% 30.07 1011.4
21 20:53 W 14 10.00 Fair CLR 73.9 54 50% 30.03 1010.2
21 19:53 SW 10 G 31 10.00 Light Rain FEW031 FEW110 75.9 54 47% 78 29.98 1008.6
21 18:53 SW 12 10.00 A Few Clouds FEW100 FEW110 86 46.9 26% 83 30 1008.4
21 17:53 SW 14 10.00 Fair CLR 87.1 48 96.1 86 26% 84 29.98 1007.7
21 16:53 W 13 10.00 Fair CLR 90 46.9 23% 87 29.99 1008.2
21 15:53 W 17 10.00 Fair CLR 89.1 45 22% 86 30.01 1009.1
21 14:53 W 5 10.00 Partly Cloudy SCT110 95 48 20% 91 30 1008.2
21 13:53 S 10 10.00 Fair CLR 91 50 25% 88 30.02 1008.9
21 12:53 S 9 10.00 Fair CLR 91 48.9 24% 88 30.04 1009.6
21 11:53 W 5 10.00 Fair CLR 86 50 86 70 29% 84 30.06 1010.3
21 10:53 Calm 10.00 Fair CLR 81 52 37% 80 30.08 1011.3
21 09:53 S 5 10.00 Fair CLR 78.1 52 40% 79 30.09 1012.0
21 08:53 W 9 10.00 Fair CLR 77 52 42% 78 30.1 1012.1
21 07:53 W 10 10.00 A Few Clouds FEW090 FEW120 73 53.1 50% 30.12 1012.7
21 06:53 W 18 G 28 10.00 Mostly Cloudy FEW070 SCT085 BKN110 72 52 50% 30.12 1012.8
21 05:53 W 7 10.00 Fair CLR 70 51.1 73 63 51% 30.12 1012.3
21 04:53 NW 7 10.00 Fair CLR 66 51.1 59% 30.11 1012.4
21 03:53 W 5 10.00 Fair CLR 64.9 51.1 61% 30.1 1012.3
21 02:53 W 5 10.00 Fair CLR 68 53.1 59% 30.09 1011.4
21 01:53 NW 12 10.00 Fair CLR 69.1 55 61% 30.09 1011.5
21 00:53 SW 6 10.00 Fair CLR 71.1 54 55% 30.08 1011.4
20 23:53 SW 7 10.00 Fair CLR 73 54 90 73 51% 30.08 1011.9
20 22:53 E 9 10.00 A Few Clouds FEW110 77 55 47% 78 30.08 1011.7
20 21:53 S 9 10.00 Fair CLR 78.1 53.1 42% 79 30.06 1011.5
20 20:53 SE 10 10.00 Fair CLR 81 52 37% 80 30.04 1010.7
20 19:53 S 6 10.00 Fair CLR 82.9 53.1 36% 82 30.04 1010.7
20 18:53 S 5 10.00 Fair CLR 84.9 52 32% 83 30.03 1010.4
20 17:53 S 7 10.00 Fair CLR 89.1 51.1 93 78.1 27% 86 30.02 1010.0
20 16:53 SW 14 10.00 Fair CLR 91.9 48 22% 89 30.04 1010.5
20 15:53 S 16 10.00 Fair CLR 89.1 52 28% 87 30.06 1011.2
20 14:53 SE 16 G 28 10.00 Fair CLR 93 53.1 26% 91 30.07 1011.2
20 13:53 SE 14 G 24 10.00 Fair CLR 90 53.1 28% 88 30.12 1013.0
20 12:53 Calm 10.00 Fair CLR 84 59 43% 84 30.17 1015.4
20 11:53 E 5 10.00 Fair CLR 78.1 59 78.1 57.9 52% 79 30.21 1017.4
20 10:53 S 8 10.00 Fair CLR 73.9 59 60% 30.22 1018.4
20 09:53 S 8 10.00 A Few Clouds FEW021 70 57.9 66% 30.24 1019.2
20 08:53 Calm 10.00 Fair CLR 68 55.9 65% 30.24 1019.2
20 07:53 SW 3 10.00 A Few Clouds FEW019 64.9 57 76% 30.24 1019.3
20 06:53 Calm 10.00 Fair CLR 62.1 57 84% 30.22 1019.2
20 05:53 W 7 10.00 Fair CLR 57.9 55.9 63 57.9 93% 30.21 1019.1
20 04:53 W 6 10.00 Fair CLR 57.9 55.9 93% 30.21 1018.9
20 03:53 W 8 10.00 Overcast OVC050 60.1 55.9 86% 30.21 1019.1
20 02:53 NE 10 10.00 Mostly Cloudy BKN065 63 57.9 84% 30.18 1017.8
20 01:53 W 15 G 20 10.00 Partly Cloudy SCT031 61 57 87% 30.24 1020.1
20 00:53 NW 9 10.00 A Few Clouds FEW029 61 55.9 84% 30.21 1019.0
19 23:53 W 7 10.00 A Few Clouds FEW045 60.1 55.9 64 60.1 86% 30.21 1019.5
19 22:53 W 6 10.00 Mostly Cloudy BKN026 BKN032 60.1 55.9 86% 30.21 1019.2
19 21:53 NW 7 10.00 Mostly Cloudy BKN032 61 55.9 84% 30.2 1018.9
19 20:53 W 12 10.00 Overcast OVC028 62.1 55.9 80% 30.19 1018.5
19 19:53 N 8 10.00 Overcast FEW014 BKN034 OVC041 63 57 81% 30.18 1017.9
19 18:53 NE 9 10.00 Overcast BKN018 OVC035 62.1 55 78% 30.18 1018.0
19 17:53 N 6 10.00 Overcast OVC018 62.1 54 62.1 55.9 75% 30.18 1018.2
19 16:53 E 5 10.00 Overcast BKN021 OVC027 61 54 78% 30.2 1018.3
19 15:53 SE 9 10.00 Overcast OVC014 60.1 54 80% 30.21 1018.8
19 14:53 SE 12 10.00 Overcast SCT013 BKN019 OVC027 61 55 81% 30.23 1019.4
19 13:53 SE 10 10.00 Overcast BKN007 OVC015 59 55 87% 30.25 1020.1
19 12:53 E 6 3.00 Fog/Mist BKN008 OVC013 57.9 55 90% 30.27 1020.7
19 11:53 NE 8 1.50 Fog/Mist OVC007 55.9 54 57.9 55 93% 30.29 1021.6 0.01 0.03
19 10:53 E 8 6.00 Fog/Mist OVC015 57 53.1 87% 30.28 1021.3
19 09:53 E 8 6.00 Overcast OVC014 57 53.1 87% 30.28 1021.1
19 08:53 NE 10 5.00 Fog/Mist OVC014 55.9 53.1 90% 30.28 1020.9 0.02
Date Time (mdt) Wind (mph) Vis. (mi.) Weather Sky Cond. Air Dwpt Max. Min. Relative Humidity Wind Chill (°F) Heat Index (°F) altimeter (in) sea level (mb) 1 hr 3 hr 6 hr
6 hour
Temperature (ºF) Pressure Precipitation (in)